Weather Roundup
Issued by NWS

Home | Current Version | Previous Version | Text Only | Print | Product List | Glossary On
Versions: 1 2 3 4 5 6 7 8 9 10 11 12 13 14 15 16 17 18 19 20 21 22 23 24 25 26 27 28 29 30 31 32 33 34 35 36 37 38 39 40 41 42 43 44 45 46 47 48 49 50
000
NZUS93 KARX 211259
HRRWXR

CURRENT HOURLY OBSERVATIONS ACROSS
MUCH OF THE UPPER MISSISSIPPI VALLEY
NATIONAL WEATHER SERVICE LA CROSSE WI
700 AM CST SUN JAN 21 2018


...SOUTHEAST MINNESOTA...


CITY           SKY/WX    TMP DP  RH WIND       PRES   REMARKS
ROCHESTER      MIX PCPN  28  28 100 N5        29.93R FOG     WCI  23
ROCHESTER/MAYO CLOUDY    26  26  99 CALM      29.94S VSB 1/4
WINONA         FOG       23  21  93 CALM      29.95R VSB<1/4
AUSTIN         FAIR      30  27  86 NE3       29.92R
ALBERT LEA     FAIR      28  27  93 NE6       29.93R WCI  22
DODGE CENTER   FAIR      28  28 100 NE5       29.93S FOG     WCI  23
PRESTON        FAIR      26  25  94 SE6       29.93R FOG     WCI  20
OWATONNA       FAIR      25  21  86 CALM      29.94S
FARIBAULT      FAIR      27  25  93 CALM      29.95R FOG
$$

...ELSEWHERE IN MINNESOTA...


CITY           SKY/WX    TMP DP  RH WIND       PRES   REMARKS
MINNEAPOLIS    CLOUDY    34  31  88 N6        29.96R WCI  29
INTNL FALLS    FOG       10   7  87 CALM      29.96R VSB 1/4
DULUTH         FAIR      24  22  91 N5        29.94S WCI  18
RED WING         N/A     27  25  93 CALM      29.95R FOG
REDWOOD FALLS  CLOUDY    34  30  85 N3        29.95R
MANKATO        FAIR      31  28  89 CALM      29.96R
WORTHINGTON    CLOUDY    27  26  96 N7        29.93S WCI  19
FAIRMONT       CLOUDY    27  26  96 N9        29.94S WCI  18
$$

...SOUTHWEST WISCONSIN...


CITY           SKY/WX    TMP DP  RH WIND       PRES   REMARKS
LA CROSSE      FOG       22  20  92 CALM      29.96R VSB<1/4
PRAIRIE DU CHI CLOUDY    28  27  94 CALM      29.96R FOG
BOSCOBEL       CLOUDY    24  22  91 CALM      29.97R FOG
LONE ROCK      NOT AVBL
PLATTEVILLE    MOCLDY    34  34 100 E6        29.94S WCI  29
FORT MC COY    CLOUDY    19  18  98 CALM      29.95S
CAMP DOUGLAS   FAIR      21  21  99 CALM      29.93S FOG
MAUSTON-NEW LI FAIR      22  21  96 CALM      29.94R FOG
VIROQUA        FAIR      29  29 100 S5        29.93R WCI  24
WIS DELLS        N/A     25  24  98 S3        29.94S FOG
$$

...ELSEWHERE IN WISCONSIN...


CITY           SKY/WX    TMP DP  RH WIND       PRES   REMARKS
MILWAUKEE      CLOUDY    33  32  96 CALM      29.97R FOG
MADISON        CLOUDY    30  30 100 CALM      29.96S FOG
GREEN BAY      FAIR      25  23  92 S5        29.96R FOG     WCI  19
EAU CLAIRE     CLOUDY    29  27  92 CALM      29.94S FOG
BLACK RVR FLS  FAIR      17  17  98 CALM      29.94S FOG
MEDFORD        CLOUDY    29  28  96 E3        29.91F FOG
WAUSAU         CLOUDY    30  29  96 NW5       29.92R WCI  25
WIS RAPIDS     FAIR      21  18  88 CALM      29.95S FOG
MARSHFIELD     FAIR      24  23  96 S7        29.92R FOG     WCI  16
RICE LAKE      CLOUDY    30  29  95 CALM      29.97R
$$

...NORTHEAST IOWA...


CITY           SKY/WX    TMP DP  RH WIND       PRES   REMARKS
WATERLOO       CLOUDY    34  33  96 NE5       29.91S FOG     WCI  30
DUBUQUE        CLOUDY    34  32  92 NE6       29.92F FOG     WCI  29
DECORAH        FOG       27  27 100 CALM      29.92F VSB 1/4
MASON CITY     CLOUDY    25  23  92 CALM      29.94R FOG
CHARLES CITY   FOG       28  28 100 E5        29.93S VSB<1/4 WCI  23
OELWEIN        CLOUDY    34  34 100 NE7       29.92R FOG     WCI  28
$$

...ELSEWHERE IN IOWA...


CITY           SKY/WX    TMP DP  RH WIND       PRES   REMARKS
DES MOINES     CLOUDY    40  38  93 NE8       29.86S FOG     WCI  34
IOWA CITY      CLOUDY    42  37  82 CALM      29.92R
FORT DODGE     CLOUDY    31  30  96 N5        29.90  WCI  26
MARSHALLTOWN   CLOUDY    37  36  96 E7        29.88S FOG     WCI  32
CEDAR RAPIDS   CLOUDY    39  37  92 E6        29.89R FOG     WCI  35
$$

...NORTHERN ILLINOIS...


CITY           SKY/WX    TMP DP  RH WIND       PRES   REMARKS
CHICAGO-OHARE  CLOUDY    37  35  92 S5        29.96F FOG     WCI  33
CHICAGO-MIDWAY CLOUDY    40  38  93 S7        29.98S FOG
MOLINE         CLOUDY    40  37  89 E6        29.92R
ROCKFORD       CLOUDY    37  35  92 CALM      29.97S FOG
PEORIA         CLOUDY    41  40  96 S6        29.95S FOG
$$

NOTE: "FAIR" INDICATES FEW OR NO CLOUDS BELOW 12,000 FEET WITH NO
SIGNIFICANT WEATHER AND/OR OBSTRUCTIONS TO VISIBILITY. WIND
SPEEDS ARE IN MILES-PER-HOUR.




USA.gov is the U.S. government's official web portal to all federal, state and local government web resources and services.